Sigfox identifier Datetime Temperature Humidity SNR
002EF961 2019-04-23 15:02:23 16.5 35 24.7
002EF961 2019-04-23 14:28:08 16.5 35 24.2
002EF961 2019-04-23 13:53:54 16.5 35 24.4
002EF961 2019-04-23 13:19:40 16.3 35 24.4
002EF961 2019-04-23 12:45:25 16.3 35 24.4
002EF961 2019-04-23 12:11:10 16.1 35 24.6
002EF961 2019-04-23 11:36:56 16 35 24.5
002EF961 2019-04-23 11:02:41 16 35 24.5
002EF961 2019-04-23 10:28:26 16 35 24.6
002EF961 2019-04-23 09:54:13 16 35 24.7
002EF961 2019-04-23 09:19:59 15.9 35 24.6
002EF961 2019-04-23 08:45:45 15.8 35 24.7
002EF961 2019-04-23 08:11:32 15.8 34 24.7
002EF961 2019-04-23 07:37:17 15.8 34 24.6
002EF961 2019-04-23 07:03:03 15.8 34 24.7
002EF961 2019-04-23 06:28:49 15.8 34 24.9
002EF961 2019-04-23 05:54:34 15.8 34 24.9
002EF961 2019-04-23 05:20:19 15.8 34 25
002EF961 2019-04-23 04:46:05 15.8 34 25
002EF961 2019-04-23 04:11:51 15.8 34 25.1
002EF961 2019-04-23 03:37:35 15.8 34 25.1
002EF961 2019-04-23 03:03:21 15.8 34 25.1
002EF961 2019-04-23 02:29:07 15.8 34 25.1
002EF961 2019-04-23 01:54:52 15.8 34 25.2
002EF961 2019-04-23 01:20:36 15.8 34 25.1
002EF961 2019-04-23 00:46:21 15.8 34 25.1
002EF961 2019-04-23 00:12:07 15.8 34 25.1
002EF961 2019-04-22 23:37:51 15.9 34 25
002EF961 2019-04-22 23:03:36 15.9 34 25.1
002EF961 2019-04-22 22:29:20 15.9 34 25.1
002EF961 2019-04-22 21:55:06 16 34 25.1
002EF961 2019-04-22 21:20:51 16 34 25.2
002EF961 2019-04-22 20:46:38 16.1 34 25.2
002EF961 2019-04-22 20:12:24 16 34 25.4
002EF961 2019-04-22 19:38:10 16.1 34 25.3
002EF961 2019-04-22 19:03:55 16.1 34 25.4
002EF961 2019-04-22 18:29:42 16.2 34 25.3
002EF961 2019-04-22 17:55:28 16.3 34 25.4
002EF961 2019-04-22 17:21:13 16.3 34 25.4
002EF961 2019-04-22 16:46:59 16.2 34 25.2
002EF961 2019-04-22 16:12:44 16.1 34 25
002EF961 2019-04-22 15:38:31 16.1 34 25.1
002EF961 2019-04-22 15:04:16 16 34 25
002EF961 2019-04-22 14:30:02 16 34 24.9
002EF961 2019-04-22 13:55:49 16 34 24.8
002EF961 2019-04-22 13:21:35 16 34 24.8
002EF961 2019-04-22 12:47:21 16 34 24.7
002EF961 2019-04-22 12:13:07 16 34 24.8
002EF961 2019-04-22 11:38:53 16 34 24.7
002EF961 2019-04-22 11:04:37 16 34 24.8
002EF961 2019-04-22 10:30:21 16 34 24.9
002EF961 2019-04-22 09:56:05 15.8 34 25
002EF961 2019-04-22 09:21:49 15.8 34 25
002EF961 2019-04-22 08:47:34 15.8 34 24.9
002EF961 2019-04-22 08:13:18 15.8 34 25
002EF961 2019-04-22 07:39:03 15.9 34 25
002EF961 2019-04-22 07:04:48 15.8 34 25.1
002EF961 2019-04-22 06:30:32 15.9 34 25
002EF961 2019-04-22 05:56:16 15.9 34 24.9
002EF961 2019-04-22 05:22:01 15.8 34 24.9
002EF961 2019-04-22 04:47:46 15.8 34 24.8
002EF961 2019-04-22 04:13:30 15.8 34 24.8
002EF961 2019-04-22 03:39:16 15.8 34 24.8
002EF961 2019-04-22 03:05:03 15.8 34 24.9
002EF961 2019-04-22 02:30:46 15.8 34 25.1
002EF961 2019-04-22 01:56:29 15.8 34 25
002EF961 2019-04-22 01:22:13 15.8 34 25
002EF961 2019-04-22 00:47:56 15.7 34 24.9
002EF961 2019-04-22 00:13:40 15.8 34 25
002EF961 2019-04-21 23:39:25 15.6 34 25
002EF961 2019-04-21 23:05:09 15.6 34 25.1
002EF961 2019-04-21 22:30:53 15.6 34 25
002EF961 2019-04-21 21:56:37 15.6 34 25.1
002EF961 2019-04-21 21:22:20 15.6 34 25
002EF961 2019-04-21 20:48:05 15.7 34 24.9
002EF961 2019-04-21 20:13:49 15.6 34 24.9
002EF961 2019-04-21 19:39:34 15.6 34 24.7
002EF961 2019-04-21 19:05:18 15.6 34 24.8
002EF961 2019-04-21 18:31:02 15.6 34 24.9
002EF961 2019-04-21 17:56:47 15.6 34 24.8
002EF961 2019-04-21 17:22:32 15.6 34 24.7
002EF961 2019-04-21 16:48:16 15.6 34 24.8
002EF961 2019-04-21 16:14:00 15.6 34 24.7
002EF961 2019-04-21 15:39:45 15.6 34 24.8
002EF961 2019-04-21 15:05:28 15.6 34 24.8
002EF961 2019-04-21 14:31:13 15.6 34 24.8
002EF961 2019-04-21 13:56:57 15.6 34 24.8
002EF961 2019-04-21 13:22:42 15.6 34 24.8
002EF961 2019-04-21 12:48:28 15.6 34 24.9
002EF961 2019-04-21 12:14:11 15.6 33 24.8
002EF961 2019-04-21 11:39:56 15.6 33 24.9
002EF961 2019-04-21 11:05:41 15.6 33 24.9
002EF961 2019-04-21 10:31:26 15.6 33 24.9
002EF961 2019-04-21 09:57:10 15.7 33 24.9
002EF961 2019-04-21 09:22:56 15.8 33 24.8
002EF961 2019-04-21 08:48:40 15.8 33 24.7
002EF961 2019-04-21 08:14:25 15.9 33 24.7
002EF961 2019-04-21 07:40:09 15.8 33 24.7
002EF961 2019-04-21 07:05:55 15.8 33 24.8
002EF961 2019-04-21 06:31:39 15.8 33 24.8
002EF961 2019-04-21 05:57:24 15.9 33 25.1
002EF961 2019-04-21 05:23:09 15.8 33 25
002EF961 2019-04-21 04:48:52 15.8 33 24.9
002EF961 2019-04-21 04:14:36 15.8 33 24.9
002EF961 2019-04-21 03:40:19 15.8 33 25
002EF961 2019-04-21 03:06:04 15.8 33 25
002EF961 2019-04-21 02:31:48 15.8 33 25
002EF961 2019-04-21 01:57:33 15.8 33 25.1
002EF961 2019-04-21 01:23:20 15.8 33 25.2
002EF961 2019-04-21 00:49:07 15.7 33 25.2
002EF961 2019-04-21 00:14:54 15.9 33 25.2
002EF961 2019-04-20 23:40:39 15.7 33 25.2
002EF961 2019-04-20 23:06:23 15.6 33 25.1
002EF961 2019-04-20 22:32:08 15.6 33 25.1
002EF961 2019-04-20 21:57:54 15.6 33 25
002EF961 2019-04-20 21:23:39 15.8 33 25.1
002EF961 2019-04-20 20:49:25 15.8 33 25.2
002EF961 2019-04-20 20:15:11 15.8 33 25.2
002EF961 2019-04-20 19:40:57 15.8 33 25.2
002EF961 2019-04-20 19:06:43 15.8 33 25.3
002EF961 2019-04-20 18:32:29 15.8 33 25.1
002EF961 2019-04-20 17:58:15 15.8 33 25.1
002EF961 2019-04-20 17:24:00 15.6 33 25.2
002EF961 2019-04-20 16:49:45 15.7 33 25.1
002EF961 2019-04-20 16:15:29 15.7 33 25.1
002EF961 2019-04-20 15:41:14 15.8 33 24.9
002EF961 2019-04-20 15:06:59 15.7 33 24.9
002EF961 2019-04-20 14:32:44 15.6 33 24.9
002EF961 2019-04-20 13:58:29 15.6 33 25
002EF961 2019-04-20 13:24:14 15.6 33 24.9
002EF961 2019-04-20 12:49:57 15.8 33 24.8
002EF961 2019-04-20 12:15:41 15.7 33 24.7
002EF961 2019-04-20 11:41:25 15.8 33 24.7
002EF961 2019-04-20 11:07:09 15.8 33 24.6
002EF961 2019-04-20 10:32:52 15.8 33 24.5
002EF961 2019-04-20 09:58:36 15.9 33 24.5
002EF961 2019-04-20 09:24:20 15.8 33 24.6
002EF961 2019-04-20 08:50:05 15.8 33 24.5
002EF961 2019-04-20 08:15:49 15.8 33 24.6
002EF961 2019-04-20 07:41:33 15.9 33 24.7
002EF961 2019-04-20 07:07:17 16 33 24.6
002EF961 2019-04-20 06:33:02 15.8 33 24.6
002EF961 2019-04-20 05:58:45 15.9 33 24.6
002EF961 2019-04-20 05:24:30 16 33 24.7
002EF961 2019-04-20 04:50:14 15.8 33 24.7
002EF961 2019-04-20 04:15:59 15.9 33 24.7
002EF961 2019-04-20 03:41:44 15.9 33 24.8
002EF961 2019-04-20 03:07:28 16 33 24.7
002EF961 2019-04-20 02:33:12 16 33 24.8
002EF961 2019-04-20 01:58:57 16 32 24.9
002EF961 2019-04-20 01:24:38 16 32 24.9
002EF961 2019-04-20 00:50:23 16 32 24.9
002EF961 2019-04-20 00:16:07 16.1 32 24.9
002EF961 2019-04-19 23:41:51 16.3 32 24.9
002EF961 2019-04-19 23:07:35 16.3 32 25
002EF961 2019-04-19 22:33:19 16.3 32 25.2
002EF961 2019-04-19 21:59:03 16.3 32 25.1
002EF961 2019-04-19 21:24:48 16.3 32 25.1
002EF961 2019-04-19 20:50:33 16.3 32 25.1
002EF961 2019-04-19 20:16:18 16.3 32 25.2
002EF961 2019-04-19 19:42:02 16.3 32 25.2
002EF961 2019-04-19 19:07:46 16.4 32 25.3
002EF961 2019-04-19 18:33:30 16.5 32 25.3
002EF961 2019-04-19 17:59:14 16.5 32 25.3
002EF961 2019-04-19 17:24:58 16.4 32 25.4
002EF961 2019-04-19 16:50:43 16.3 32 25.2
002EF961 2019-04-19 16:16:27 16.3 32 25.2
002EF961 2019-04-19 15:42:11 16.3 32 25.3
002EF961 2019-04-19 15:07:55 16.3 32 25.2
002EF961 2019-04-19 14:33:38 16.3 32 25.2
002EF961 2019-04-19 13:59:22 16.3 32 25.2
002EF961 2019-04-19 13:25:06 16.2 32 25.1
002EF961 2019-04-19 12:50:51 16 32 25.1
002EF961 2019-04-19 12:16:35 16 32 25
002EF961 2019-04-19 11:42:19 16 32 25
002EF961 2019-04-19 11:08:03 16 32 25.1
002EF961 2019-04-19 10:33:49 16 32 25
002EF961 2019-04-19 09:59:33 16 32 25.1
002EF961 2019-04-19 09:25:18 16 32 25
002EF961 2019-04-19 08:51:03 16 32 25
002EF961 2019-04-19 08:16:47 16 32 25
002EF961 2019-04-19 07:42:32 16 32 25
002EF961 2019-04-19 07:08:17 16.1 32 24.9
002EF961 2019-04-19 06:34:02 16 32 25
002EF961 2019-04-19 05:59:47 16.1 32 25
002EF961 2019-04-19 05:25:33 16.2 32 25.3
002EF961 2019-04-19 04:51:18 16.2 32 25.3
002EF961 2019-04-19 04:17:02 16.1 31 25.3
002EF961 2019-04-19 03:42:46 16.2 31 25.2
002EF961 2019-04-19 03:08:32 16.3 31 25.1
002EF961 2019-04-19 02:34:14 16.3 31 25
002EF961 2019-04-19 01:59:58 16.3 31 25
002EF961 2019-04-19 01:25:42 16.3 31 25
002EF961 2019-04-19 00:51:26 16.4 31 25.1
002EF961 2019-04-19 00:17:11 16.5 31 25.1
002EF961 2019-04-18 23:42:55 16.5 31 25.1
002EF961 2019-04-18 23:08:40 16.6 31 25.1
002EF961 2019-04-18 22:34:25 16.7 31 25.1
002EF961 2019-04-18 22:00:08 16.7 31 25.1
002EF961 2019-04-18 21:25:53 16.7 31 25.1
002EF961 2019-04-18 20:51:37 16.7 31 25
002EF961 2019-04-18 20:17:21 16.7 31 25
002EF961 2019-04-18 19:43:05 16.8 31 24.9
002EF961 2019-04-18 19:08:50 16.9 31 24.9
002EF961 2019-04-18 18:34:34 16.8 31 24.8
002EF961 2019-04-18 18:00:18 16.8 31 24.8
002EF961 2019-04-18 17:26:03 16.7 31 24.8
002EF961 2019-04-18 16:51:46 16.7 31 24.7
002EF961 2019-04-18 16:17:30 16.7 31 24.6
002EF961 2019-04-18 15:43:14 16.7 31 24.5
002EF961 2019-04-18 15:08:59 16.6 31 24
002EF961 2019-04-18 14:34:42 16.5 31 23.8
002EF961 2019-04-18 14:00:26 16.5 31 23.9
002EF961 2019-04-18 13:26:08 16.4 31 24
002EF961 2019-04-18 12:51:52 16.4 31 24.1
002EF961 2019-04-18 12:17:36 16.3 31 24.3
002EF961 2019-04-18 11:43:20 16.4 31 24.3
002EF961 2019-04-18 11:09:04 16.4 31 24.3
002EF961 2019-04-18 10:34:48 16.5 31 24.3
002EF961 2019-04-18 10:00:32 16.3 31 24.5
002EF961 2019-04-18 09:26:17 16.3 30 24.4
002EF961 2019-04-18 08:52:00 16.3 30 24.6
002EF961 2019-04-18 08:17:45 16.4 30 24.7
002EF961 2019-04-18 07:43:29 16.3 30 24.7
002EF961 2019-04-18 07:09:12 16.3 30 24.6
002EF961 2019-04-18 06:34:55 16.3 30 24.6
002EF961 2019-04-18 06:00:39 16.3 30 24.7
002EF961 2019-04-18 05:26:23 16.3 30 24.8
002EF961 2019-04-18 04:52:06 16.3 30 24.8
002EF961 2019-04-18 04:17:50 16.3 30 24.7
002EF961 2019-04-18 03:43:34 16.3 30 24.6
002EF961 2019-04-18 03:09:20 16.3 30 24.6
002EF961 2019-04-18 02:35:02 16.3 30 24.6
002EF961 2019-04-18 02:00:47 16.5 30 24.5
002EF961 2019-04-18 01:26:32 16.5 30 24.5
002EF961 2019-04-18 00:52:16 16.6 30 24.5
002EF961 2019-04-18 00:18:01 16.7 30 24.3
002EF961 2019-04-17 23:43:45 16.8 30 24.2
002EF961 2019-04-17 23:09:30 16.9 30 24.1
002EF961 2019-04-17 22:35:15 16.9 30 23.9
002EF961 2019-04-17 22:01:00 16.9 30 23.8
002EF961 2019-04-17 21:26:43 16.9 29 23.7
002EF961 2019-04-17 20:52:28 16.7 29 23.6
002EF961 2019-04-17 20:18:13 16.7 29 24
002EF961 2019-04-17 19:43:58 16.7 29 23.8
002EF961 2019-04-17 19:09:42 16.7 29 23.7
002EF961 2019-04-17 18:35:27 16.7 29 24.1
002EF961 2019-04-17 18:01:12 16.7 29 24.1
002EF961 2019-04-17 17:26:57 16.7 29 24
002EF961 2019-04-17 16:52:41 16.7 29 24
002EF961 2019-04-17 16:18:26 16.7 29 23.8
002EF961 2019-04-17 15:44:11 16.7 29 23.8
002EF961 2019-04-17 15:09:56 16.7 29 23.9
002EF961 2019-04-17 14:35:41 16.8 28 23.9
002EF961 2019-04-17 14:01:27 16.9 28 24
002EF961 2019-04-17 12:52:56 17.1 28 24
002EF961 2019-04-17 12:18:40 17.1 28 24
002EF961 2019-04-17 11:44:24 16.9 28 24.4
002EF961 2019-04-17 11:10:08 16.9 28 24.4
002EF961 2019-04-17 10:35:52 16.9 28 24.3
002EF961 2019-04-17 10:01:38 16.9 28 24.3
002EF961 2019-04-17 09:27:23 16.9 28 24.3
002EF961 2019-04-17 08:53:08 17 28 24.2
002EF961 2019-04-17 08:18:53 17.1 27 24.1
002EF961 2019-04-17 07:44:37 17.3 27 24.1
002EF961 2019-04-17 07:10:22 17.3 27 24.2
002EF961 2019-04-17 06:36:06 17.5 27 24.1
002EF961 2019-04-17 06:01:50 17.5 27 24.1
002EF961 2019-04-17 05:27:34 17.6 27 23.5
002EF961 2019-04-17 04:53:20 17.8 27 23.5
002EF961 2019-04-17 04:19:05 17.8 27 23.2
002EF961 2019-04-17 03:44:50 17.8 27 22.3
002EF961 2019-04-17 03:10:36 18 27 22.1
002EF961 2019-04-17 02:36:20 18 26 21.9
002EF961 2019-04-17 02:02:04 18 26 21.8
002EF961 2019-04-17 01:27:47 18 26 21.7
002EF961 2019-04-17 00:53:30 18 26 21.4
002EF961 2019-04-17 00:19:15 18 26 21.3
002EF961 2019-04-16 23:45:00 18 26 21.3
002EF961 2019-04-16 23:10:44 18 25 21.3
002EF961 2019-04-16 22:36:30 18.2 25 21.4
002EF961 2019-04-16 22:02:14 18.6 25 21.4
002EF961 2019-04-16 21:27:58 18.6 25 19.9
002EF961 2019-04-16 20:53:41 18.9 25 20.3
002EF961 2019-04-16 20:19:24 19 25 20.6
002EF961 2019-04-16 19:45:07 19.1 25 21
002EF961 2019-04-16 19:10:51 19.1 25 21.2
002EF961 2019-04-16 18:36:35 19.2 24 22.4
002EF961 2019-04-16 18:02:19 19.3 24 22.4
002EF961 2019-04-16 16:53:45 19.7 24 22.7
002EF961 2019-04-16 16:19:25 19.8 24 22.6
002EF961 2019-04-16 15:45:12 19.9 23 22.7
002EF961 2019-04-16 15:10:50 20.1 23 22.6
002EF961 2019-04-16 14:36:33 20.5 23 22.6
002EF961 2019-04-16 14:02:16 21.2 23 22.8
002EF961 2019-04-16 13:28:02 21.2 23 23.1
002EF961 2019-04-16 12:53:40 21.2 23 23.2
002EF961 2019-04-16 12:19:25 21.2 23 23.3
002EF961 2019-04-16 11:45:07 21.2 23 23.5
002EF961 2019-04-16 11:10:45 21.1 23 23.7
002EF961 2019-04-16 10:36:28 21 23 23.8
002EF961 2019-04-16 10:02:13 21.2 23 23.9
002EF961 2019-04-16 09:27:55 21.1 23 24
002EF961 2019-04-16 08:53:38 21.1 23 24.1
002EF961 2019-04-16 08:19:21 21 23 24.1
002EF961 2019-04-16 07:45:03 21.1 23 23.9
002EF961 2019-04-16 07:10:44 21 23 24
002EF961 2019-04-16 06:36:27 21.1 23 23.8
002EF961 2019-04-16 06:02:12 21.1 23 23.8
002EF961 2019-04-16 05:27:52 21.1 23 23.8
002EF961 2019-04-16 04:53:34 21.2 22 23.7
002EF961 2019-04-16 04:19:15 21.1 22 23
002EF961 2019-04-16 03:44:56 21.1 22 22.9
002EF961 2019-04-16 03:10:40 21.2 22 22.7
002EF961 2019-04-16 02:36:22 21.2 22 22.5
002EF961 2019-04-16 02:02:04 21.2 22 22.7
002EF961 2019-04-16 01:27:46 21.2 22 22.9
002EF961 2019-04-16 00:53:29 21.2 22 22.9
002EF961 2019-04-16 00:19:10 21.2 22 22.8
002EF961 2019-04-15 23:44:52 21.2 22 23.4
002EF961 2019-04-15 23:10:35 21.2 22 24
002EF961 2019-04-15 22:36:17 21.2 22 24.1
002EF961 2019-04-15 22:02:00 21.2 22 24.1
002EF961 2019-04-15 21:27:42 21.2 22 24
002EF961 2019-04-15 20:53:25 21.2 22 24.1
002EF961 2019-04-15 20:19:07 21.2 21 24.1
002EF961 2019-04-15 19:44:49 21.2 21 24
002EF961 2019-04-15 19:10:32 21.2 21 23.9
002EF961 2019-04-15 18:36:14 21.2 21 23.9
002EF961 2019-04-15 18:01:56 21.3 21 24.2
002EF961 2019-04-15 17:27:39 21.4 21 24.4
002EF961 2019-04-15 16:53:22 21.4 21 24.5
002EF961 2019-04-15 16:19:04 21.5 21 24.6
002EF961 2019-04-15 15:44:45 21.6 20 24.7
002EF961 2019-04-15 15:10:27 21.6 20 24.7
002EF961 2019-04-15 14:36:10 21.7 20 24.6
002EF961 2019-04-15 14:01:52 21.8 19 24.7
002EF961 2019-04-15 13:27:34 21.9 19 24.8
002EF961 2019-04-15 12:53:16 22.1 18 25.4
002EF961 2019-04-15 12:18:57 22.5 17 25.8
002EF961 2019-04-15 11:44:39 22.5 15 25.8
002EF961 2019-04-15 11:10:20 22.5 16 25.8
002EF961 2019-04-15 10:36:01 22.4 16 25.9
002EF961 2019-04-15 10:01:43 22.3 16 25.9
002EF961 2019-04-15 09:27:24 22.2 17 25.5
002EF961 2019-04-15 08:53:07 22.2 16 25.2
002EF961 2019-04-15 08:18:49 22 16 25.5
002EF961 2019-04-15 07:44:30 22 16 25.6
002EF961 2019-04-15 07:10:12 21.9 16 25.6
002EF961 2019-04-15 06:35:55 21.8 16 25.6
002EF961 2019-04-15 06:01:38 21.9 16 25.6
002EF961 2019-04-15 05:27:21 21.8 17 25.6
002EF961 2019-04-15 04:53:02 21.8 17 25.7
002EF961 2019-04-15 04:18:45 21.8 17 25.8
002EF961 2019-04-15 03:44:28 21.8 17 25.7
002EF961 2019-04-15 03:10:09 21.8 17 25.6
002EF961 2019-04-15 02:35:51 21.8 17 25.6
002EF961 2019-04-15 02:01:33 21.8 17 25.6
002EF961 2019-04-15 01:27:15 21.8 17 25.7
002EF961 2019-04-15 00:52:56 21.8 17 25.7
002EF961 2019-04-15 00:18:39 21.8 17 25.7
002EF961 2019-04-14 23:44:22 21.8 17 25.7
002EF961 2019-04-14 23:10:04 21.8 17 25.7
002EF961 2019-04-14 22:35:46 21.8 17 25.4
002EF961 2019-04-14 22:01:28 22 17 25
002EF961 2019-04-14 21:27:10 22 18 25
002EF961 2019-04-14 20:52:52 22 18 25
002EF961 2019-04-14 20:18:35 22.1 18 25.1
002EF961 2019-04-14 19:44:18 22.2 17 25.1
002EF961 2019-04-14 19:09:59 22.2 17 25.1
002EF961 2019-04-14 18:35:41 22.2 17 25
002EF961 2019-04-14 18:01:22 22.1 17 24.5
002EF961 2019-04-14 17:27:03 22 17 24.9
002EF961 2019-04-14 16:52:44 22 17 24.9
002EF961 2019-04-14 16:18:25 22 17 24.9
002EF961 2019-04-14 15:44:07 22 17 25
002EF961 2019-04-14 15:09:49 22 17 25
002EF961 2019-04-14 14:35:31 22 17 24.9
002EF961 2019-04-14 14:01:12 22 18 24.7
002EF961 2019-04-14 13:26:53 22 18 24.8
002EF961 2019-04-14 12:52:34 22 18 24.9
002EF961 2019-04-14 12:18:15 22 18 24.9
002EF961 2019-04-14 11:43:56 22 18 24.9
002EF961 2019-04-14 11:09:39 22 18 24.9
002EF961 2019-04-14 10:35:21 22 18 24.8
002EF961 2019-04-14 10:01:03 22 18 24.8
002EF961 2019-04-14 09:26:44 22 18 24.8
002EF961 2019-04-14 08:52:25 22 18 25.2
002EF961 2019-04-14 08:18:06 22 17 25.2
002EF961 2019-04-14 07:43:47 22 17 25.3
002EF961 2019-04-14 07:09:28 21.9 17 25.2
002EF961 2019-04-14 06:35:08 21.8 17 25.2
002EF961 2019-04-14 06:00:47 21.9 17 25.1
002EF961 2019-04-14 05:26:27 21.9 17 25.1
002EF961 2019-04-14 04:52:06 21.8 17 25.1
002EF961 2019-04-14 04:17:46 21.9 17 25.2
002EF961 2019-04-14 03:43:27 22 17 25.3
002EF961 2019-04-14 03:09:07 22 17 24.9
002EF961 2019-04-14 02:34:48 22 17 25
002EF961 2019-04-14 02:00:28 22 17 25
002EF961 2019-04-14 01:26:08 22.1 17 25
002EF961 2019-04-14 00:51:49 22 17 25
002EF961 2019-04-14 00:17:29 22 17 25
002EF961 2019-04-13 23:43:09 22 17 25.1
002EF961 2019-04-13 23:08:48 22 17 25.1
002EF961 2019-04-13 22:34:28 22 17 25
002EF961 2019-04-13 22:00:09 22 17 25.1
002EF961 2019-04-13 21:25:48 22.1 17 25
002EF961 2019-04-13 20:51:29 22 17 25
002EF961 2019-04-13 20:17:09 22.2 17 25.1
002EF961 2019-04-13 19:42:48 22.3 17 25.1
002EF961 2019-04-13 19:08:27 22.2 17 25.5
002EF961 2019-04-13 18:34:08 22.2 17 25.1
002EF961 2019-04-13 17:59:48 22.2 17 25
002EF961 2019-04-13 17:25:27 22.3 17 25
002EF961 2019-04-13 16:51:06 22.3 17 25.1
002EF961 2019-04-13 16:16:47 22.3 17 25
002EF961 2019-04-13 15:42:28 22.4 17 24.9
002EF961 2019-04-13 15:08:08 22.5 17 25
002EF961 2019-04-13 14:33:48 22.4 17 24.9
002EF961 2019-04-13 13:59:29 22.5 17 24.8
002EF961 2019-04-13 13:25:09 22.5 17 24.9
002EF961 2019-04-13 12:50:48 22.5 17 25
002EF961 2019-04-13 12:16:27 22.5 17 24.9
002EF961 2019-04-13 11:42:08 22.5 17 25
002EF961 2019-04-13 11:07:49 22.5 17 24.9
002EF961 2019-04-13 10:33:29 22.5 17 25.3
002EF961 2019-04-13 09:59:09 22.5 17 25.7
002EF961 2019-04-13 09:24:49 22.5 17 25.6
002EF961 2019-04-13 08:50:29 22.4 16 25.6
002EF961 2019-04-13 08:16:10 22.5 16 25.6
002EF961 2019-04-13 07:41:49 22.5 16 25.5
002EF961 2019-04-13 07:07:29 22.4 16 25.5
002EF961 2019-04-13 06:33:08 22.4 16 25.4
002EF961 2019-04-13 05:58:48 22.4 16 25.4
002EF961 2019-04-13 05:24:27 22.4 16 25.7
002EF961 2019-04-13 04:50:07 22.4 16 25.7
002EF961 2019-04-13 04:15:47 22.4 16 26.1
002EF961 2019-04-13 03:41:26 22.5 16 26.4
002EF961 2019-04-13 03:07:07 22.5 16 26.3
002EF961 2019-04-13 02:32:47 22.5 16 26.4
002EF961 2019-04-13 01:58:28 22.5 17 26.5
002EF961 2019-04-13 01:24:08 22.5 17 26.7
002EF961 2019-04-13 00:49:48 22.5 17 26.7
002EF961 2019-04-13 00:15:29 22.6 17 26.8
002EF961 2019-04-12 23:41:10 22.6 17 27
002EF961 2019-04-12 23:06:49 22.7 17 27
002EF961 2019-04-12 22:32:30 22.7 17 27
002EF961 2019-04-12 21:58:10 22.8 17 27.1
002EF961 2019-04-12 21:23:50 22.9 17 27.2
002EF961 2019-04-12 20:49:31 22.9 17 27.3
002EF961 2019-04-12 20:15:10 22.9 17 27.1
002EF961 2019-04-12 19:40:50 22.9 16 26.7
002EF961 2019-04-12 19:06:29 22.9 16 26.9
002EF961 2019-04-12 18:32:07 23.1 15 27.1
002EF961 2019-04-12 17:57:45 23.2 16 27.3
002EF961 2019-04-12 17:23:24 23.3 16 27.6
002EF961 2019-04-12 16:49:01 23.3 16 28.1
002EF961 2019-04-12 16:14:40 23.3 16 28.6
002EF961 2019-04-12 15:40:18 23.3 16 29.1
002EF961 2019-04-12 15:05:56 23.3 17 28.9
002EF961 2019-04-12 14:31:36 23.1 17 28.4
002EF961 2019-04-12 13:57:14 22.9 17 27.3
002EF961 2019-04-12 13:22:53 22.2 18 18.8